Home > Weather > Charlottetown > Past weeks

Flag for Canada Past Weather in Charlottetown, Prince Edward Island, Canada — Yesterday and Last 2 Weeks

Now
68 °F

Broken clouds.


Feels Like: 68 °F
Forecast: 65 / 79 °F
Wind: 14 mph from Southwest

Location: Charlottetown

Current Time: Aug 25, 2016 at 10:27:52 AM

Latest Report: Aug 25, 2016 at 10:00 AM


Visibility: 15 mi

Pressure: 30.01 "Hg

Humidity: 78%

Dew Point: 61 °F

Location of CharlottetownLocation

Past Weather in Charlottetown — Graph

°F

Charlottetown Temperature Yesterday

Maximum temperature yesterday: 77 °F (at 2:00 PM)
Minimum temperature yesterday: 63 °F (at 4:00 AM)
Average temperature yesterday: 69 °F

High & Low Weather Summary for the Past Weeks

 TemperatureHumidityPressure
High81 °F (Aug 10, 4:00 PM)100% (Aug 12, 2:00 AM)30.19 "Hg (Aug 12, 2:00 AM)
Low52 °F (Aug 13, 7:00 AM)39% (Aug 10, 4:00 PM)29.68 "Hg (Aug 22, 7:00 PM)
Average66 °F81%29.96 "Hg
* Reported Aug 10 9:00 AM — Aug 25 9:00 AM, Charlottetown, Weather by CustomWeather, © 2016

Note: Actual official high and low records may vary slightly from our data, if they occured in-between our weather recording intervals... More about our weather records

Advertising

Charlottetown Weather History for the Previous 24 Hours

Scroll right to see more
 ConditionsComfort  
Time TempWeatherWind HumidityBarometerVisibility
9:00 AM
Thu, Aug 25
68 °FBroken clouds.13 mph78%30.03 "Hg15 mi
8:00 AM66 °FBroken clouds.13 mph78%30.04 "Hg15 mi
7:00 AM66 °FMostly cloudy.14 mph78%30.03 "Hg15 mi
6:00 AM64 °FPassing clouds.12 mph83%30.02 "Hg15 mi
5:00 AM64 °FPassing clouds.8 mph83%30.03 "Hg15 mi
4:00 AM64 °FPassing clouds.8 mph83%30.03 "Hg15 mi
3:00 AM66 °FPassing clouds.9 mph73%30.03 "Hg15 mi
2:00 AM66 °FPassing clouds.8 mph73%30.05 "Hg15 mi
1:00 AM68 °FPassing clouds.12 mph69%30.05 "Hg15 mi
12:00 AM68 °FPassing clouds.8 mph73%30.06 "Hg15 mi
11:00 PM
Wed, Aug 24
68 °FPassing clouds.9 mph73%30.07 "Hg15 mi
10:00 PM70 °FPassing clouds.10 mph73%30.07 "Hg15 mi
9:00 PM70 °FScattered clouds.12 mph73%30.06 "Hg15 mi
8:00 PM72 °FPartly sunny.12 mph69%30.06 "Hg15 mi
7:00 PM75 °FPartly sunny.10 mph65%30.06 "Hg15 mi
6:00 PM77 °FBroken clouds.9 mph61%30.05 "Hg15 mi
5:00 PM77 °FBroken clouds.9 mph61%30.07 "Hg15 mi
4:00 PM77 °FBroken clouds.9 mph61%30.07 "Hg15 mi
3:00 PM75 °FPartly sunny.9 mph61%30.09 "Hg15 mi
2:00 PM77 °FPartly sunny.14 mph57%30.09 "Hg15 mi
1:00 PM75 °FPartly sunny.8 mph65%30.09 "Hg15 mi
12:00 PM73 °FScattered clouds.9 mph65%30.11 "Hg15 mi
11:00 AM72 °FScattered clouds.10 mph69%30.11 "Hg15 mi
10:00 AM70 °FBroken clouds.9 mph69%30.11 "Hg15 mi
Weather by CustomWeather, © 2016

See weather overviewHow to use our weather pages